Location: Krasnoyarskiy Pitomnik
(51.1333°N, 71.6167°E)
Time: 17:41:03
(UTC+00:00)

Vanguard 3 - Visible Passes

Search period start: 19 April 2024 00:00
Search period end: 29 April 2024 00:00
Orbit: 510 x 3235 km, 33.3° (Epoch: 18 April)

Date Brightness Start Highest point End Pass type
(mag) Time Alt. Az. Time Alt. Az. Time Alt. Az.
19 Apr 10.8 21:04:05 10° SSE 21:06:21 10° SSE 21:08:28 10° SE visible
19 Apr 10.1 23:09:41 10° SSW 23:18:16 20° SSE 23:24:26 10° SE visible
20 Apr 10.4 21:53:27 12° S 22:00:23 18° SSE 22:06:59 10° ESE visible
21 Apr 10.7 20:39:48 13° SSE 20:42:16 14° SSE 20:47:54 10° SE visible
21 Apr 10.1 22:44:00 10° SW 22:54:26 24° S 23:01:47 10° ESE visible
22 Apr 10.4 21:30:15 17° S 21:36:19 21° SSE 21:44:20 10° ESE visible
23 Apr 10.7 20:16:24 16° SSE 20:17:58 17° SSE 20:25:37 10° ESE visible
23 Apr 10.1 22:20:35 14° SSW 22:30:24 28° S 22:38:51 10° ESE visible
24 Apr 11.0 19:02:28 10° SE 19:02:28 10° SE 19:03:04 10° SE visible
24 Apr 10.3 21:06:39 21° S 21:12:02 25° SSE 21:21:22 10° ESE visible
24 Apr 9.9 23:11:57 10° SW 23:24:24 31° S 23:32:35 10° ESE visible
25 Apr 10.6 19:52:37 20° SSE 19:53:28 20° SSE 20:02:42 10° ESE visible
25 Apr 10.1 21:56:47 18° SSW 22:06:08 31° S 22:15:43 10° ESE visible
26 Apr 11.0 18:38:29 12° SE 18:38:29 12° SE 18:41:33 10° ESE visible
26 Apr 10.3 20:42:39 24° S 20:47:31 28° SSE 20:58:06 10° ESE visible
26 Apr 9.9 22:46:49 11° SW 23:00:11 34° S 23:09:24 10° ESE visible
27 Apr 10.6 19:28:24 22° SSE 19:28:46 22° SSE 19:39:23 10° ESE visible
27 Apr 10.1 21:32:34 21° SSW 21:41:40 34° S 21:52:21 10° ESE visible
28 Apr 10.9 18:14:02 14° SE 18:14:02 14° SE 18:18:37 10° ESE visible
28 Apr 10.3 20:18:10 27° S 20:22:48 30° SSE 20:34:34 10° ESE visible
28 Apr 9.9 22:22:19 13° SW 22:35:45 36° S 22:46:00 10° ESE visible
